MIDAS 3 DEB, 188

Orbit data source: Space-Track

MIDAS 3 DEB, 188 is space debris in LEO originally from a launch on Wed, 12 Jul 1961 UTC launched from the Air Force Western Test Range (AFWTR). Debris objects in space refer to the collection of defunct objects orbiting the Earth. Examples of debris include non-operational satellites, rocket bodies, and fragments generated from explosions, collisions, or faulty payload assembly.

Loading next visibility...
Identifier
188, 1961-018C
Orbit
LEO
Country
Flag of USUS
Related business
Manufacturer
Unknown
Mission
Spacecraft
Bus & Motor
Unknown
Mass
~10 kg wet, ~10 kg dry
Launch date (UTC)
1961-07-12 (65 years ago)
Launch vehicle
Unknown
Launch site
Air Force Western Test Range (AFWTR)
Object type
Payload
Rocket body
Debris
Shape & HBR
Unknown shape, 1.1 m
Radar Cross Section
Medium (>0.1 m² and <1 m²)

Expand to show TLE details & history
Last TLE update: 18 hours ago

TLE from 18 hours ago
0 MIDAS 3 DEB
1 00188U 61018C   26199.48840962 -.00000007  00000-0 -26789-2 0  9994
2 00188  91.1192 209.3986 0112714 349.1075  10.7364  8.93822490120991
Epoch: 2026-07-18T11:43Z
TLE epoch observation values (Epoch: 2026-07-18T11:43:18.591Z)
Latitude
-0°
Longitude
97.2707°
Altitude
3,323.237 km
Speed
6.446 km/s
True Right ascension
13h 57m 35s
True Declination
0° 00' 00"
Sunlit
Object was in daylight at epoch
Visualization orbit readout
Latitude
Unknown
Longitude
Unknown
Altitude
Unknown
Speed
Unknown
Apparent Right ascension
Unknown
Apparent Declination
Unknown
Sunlit
N/A
Visualization observer readout
Local Sidereal Time
18:56:40
Azimuth
Unknown
Elevation
Unknown
Doppler factor
Unknown
Orbital elements
Apogee altitude
3,537.859 km
Perigee altitude
3,316.816 km
Semi-major axis
9,805.474 km
Eccentricity
0.01127
Inclination
91.1192°
RAAN
209.3986°
Arg. of periapsis
349.1075°
True anomaly
10.98039°
Mean anomaly
10.7364°
Eccentric anomaly
10.85805°
Mean motion
2.23532 °/min
Orbital period
161.05 mins
BSTAR
-0.0026789
Loading maneuver chart data...
Computing Atmospheric mass density...
Loading historical data...
Loading historical data...
Loading historical data...
Loading historical data...
Loading historical data...
Loading historical data...
Loading historical data...
Other satellites on launch #18 in the year 1961 (1961-07-12 UTC)

Documentation

Showing up to 5 results
|